STARLINK-32635, 62155

Orbit data source: Space-Track

STARLINK-32635, 62155 is a payload satellite owned by SpaceX/Seattle (US) in LEO that was launched on Sat, 30 Nov 2024 UTC via an FALCON 9 launch vehicle from the Air Force Eastern Test Range (AFETR). Payload-class satellites include a variety of spacecraft equipped with specific instruments for various scientific and technological missions. These include communications satellites like Starlink; space stations such as the ISS; scientific satellites like the Hubble; Earth observation satellites from companies like Planet Labs, Umbra, and HawkEye 360; GPS; miniature CubeSats for education and research; and military/defense satellites.

Loading next visibility...
Identifier
62155, 2024-224S
Orbit
LEO
Country
Flag of USUS
Related business
Manufacturer
SpaceX/Seattle
Mission
Operational Commercial Communications
Bus & Motor
STARLINK V2M, Unknown motor
Mass
730 kg wet, ~700 kg dry
Launch date (UTC)
2024-11-30 (1 year ago)
Launch vehicle
FALCON 9
Launch site
Air Force Eastern Test Range (AFETR)
Object type
Payload
Rocket body
Debris
Shape & HBR
Box + 2 Pan, 17.7 m
Radar Cross Section
33.884 m², Large (>1 m²)

Expand to show TLE details & history
Last TLE update: 19 hours ago

TLE from 19 hours ago
0 STARLINK-32635
1 62155U 24224S   25348.82645681  .00028377  00000-0  10368-2 0  9992
2 62155  43.0014 284.9445 0001390 287.6998  72.3702 15.27578142 59255
Epoch: 2025-12-14T19:50Z
TLE epoch observation values (Epoch: 2025-12-14T19:50:05.868Z)
Latitude
-0°
Longitude
-96.31375°
Altitude
482.542 km
Speed
7.626 km/s
True Right ascension
18h 59m 46s
True Declination
0° 00' 00"
Sunlit
Object was in daylight at epoch
Visualization orbit readout
Latitude
Unknown
Longitude
Unknown
Altitude
Unknown
Speed
Unknown
Apparent Right ascension
Unknown
Apparent Declination
Unknown
Sunlit
N/A
Visualization observer readout
Local Sidereal Time
13:19:50
Azimuth
Unknown
Elevation
Unknown
Doppler factor
Unknown
Orbital elements
Apogee altitude
485.954 km
Perigee altitude
484.046 km
Semi-major axis
6,863.137 km
Eccentricity
0.00014
Inclination
43.0014°
RAAN
284.9445°
Arg. of periapsis
287.6998°
True anomaly
72.38538°
Mean anomaly
72.3702°
Eccentric anomaly
72.37779°
Mean motion
3.81733 °/min
Orbital period
94.31 mins
BSTAR
0.0010368
Loading maneuver chart data...
Computing Atmospheric mass density...
Loading historical data...
Loading historical data...
Loading historical data...
Loading historical data...
Loading historical data...
Loading historical data...
Loading historical data...

Documentation

Showing up to 5 results
|